TimeCST,TemperatureF,Dew PointF,Humidity,Sea Level PressureIn,VisibilityMPH,Wind Direction,Wind SpeedMPH,Gust SpeedMPH,PrecipitationIn,Events,Conditions,WindDirDegrees,DateUTC
12:53 AM,35.1,33.1,92,30.36,9.0,Calm,Calm,-,N/A,,Clear,0,2012-11-29 06:53:00
1:53 AM,34.0,32.0,92,30.36,9.0,Calm,Calm,-,N/A,,Clear,0,2012-11-29 07:53:00
2:53 AM,34.0,32.0,92,30.35,6.0,Calm,Calm,-,N/A,,Clear,0,2012-11-29 08:53:00
3:53 AM,33.1,30.9,92,30.34,6.0,Calm,Calm,-,N/A,,Clear,0,2012-11-29 09:53:00
4:53 AM,33.1,30.9,92,30.33,3.0,Calm,Calm,-,N/A,,Clear,0,2012-11-29 10:53:00
5:06 AM,32.0,30.2,93,30.34,2.5,Calm,Calm,-,N/A,,Clear,0,2012-11-29 11:06:00
5:48 AM,33.8,30.2,87,30.35,4.0,Calm,Calm,-,N/A,,Clear,0,2012-11-29 11:48:00
5:53 AM,33.1,30.9,92,30.34,3.0,Calm,Calm,-,N/A,,Clear,0,2012-11-29 11:53:00
6:03 AM,33.8,30.2,87,30.35,2.5,Calm,Calm,-,N/A,,Clear,0,2012-11-29 12:03:00
6:26 AM,33.8,30.2,87,30.36,4.0,Calm,Calm,-,N/A,,Clear,0,2012-11-29 12:26:00
6:40 AM,33.8,30.2,87,30.36,1.8,Calm,Calm,-,N/A,,Clear,0,2012-11-29 12:40:00
6:53 AM,33.1,30.9,92,30.35,2.0,Calm,Calm,-,N/A,,Clear,0,2012-11-29 12:53:00
7:04 AM,33.8,32.0,93,30.36,4.0,Calm,Calm,-,N/A,,Clear,0,2012-11-29 13:04:00
7:23 AM,33.8,30.2,87,30.37,2.5,Calm,Calm,-,N/A,,Clear,0,2012-11-29 13:23:00
7:36 AM,35.6,30.2,81,30.37,4.0,Calm,Calm,-,N/A,,Clear,0,2012-11-29 13:36:00
7:53 AM,37.0,32.0,82,30.37,9.0,Calm,Calm,-,N/A,,Clear,0,2012-11-29 13:53:00
8:53 AM,46.9,34.0,61,30.38,10.0,ESE,9.2,-,N/A,,Clear,120,2012-11-29 14:53:00
9:53 AM,52.0,35.1,53,30.38,10.0,SSE,8.1,-,N/A,,Clear,150,2012-11-29 15:53:00
10:53 AM,55.9,33.1,42,30.37,10.0,SE,6.9,-,N/A,,Clear,130,2012-11-29 16:53:00
11:53 AM,60.1,33.1,36,30.34,10.0,Variable,5.8,-,N/A,,Clear,0,2012-11-29 17:53:00
12:53 PM,61.0,33.1,35,30.30,10.0,ESE,8.1,-,N/A,,Clear,120,2012-11-29 18:53:00
1:53 PM,63.0,33.1,33,30.27,10.0,SE,5.8,-,N/A,,Clear,130,2012-11-29 19:53:00
2:53 PM,64.0,34.0,33,30.25,10.0,SE,5.8,-,N/A,,Clear,140,2012-11-29 20:53:00
3:53 PM,61.0,35.1,38,30.24,10.0,ESE,5.8,-,N/A,,Clear,110,2012-11-29 21:53:00
4:53 PM,57.9,35.1,42,30.24,10.0,ESE,4.6,-,N/A,,Clear,120,2012-11-29 22:53:00
5:53 PM,51.1,37.0,59,30.26,10.0,Calm,Calm,-,N/A,,Clear,0,2012-11-29 23:53:00
6:53 PM,50.0,37.9,63,30.26,10.0,Calm,Calm,-,N/A,,Clear,0,2012-11-30 00:53:00
7:53 PM,46.0,37.9,73,30.27,10.0,Calm,Calm,-,N/A,,Clear,0,2012-11-30 01:53:00
8:53 PM,46.9,39.0,74,30.28,10.0,Calm,Calm,-,N/A,,Clear,0,2012-11-30 02:53:00
9:53 PM,46.9,39.0,74,30.28,10.0,SE,3.5,-,N/A,,Clear,140,2012-11-30 03:53:00
10:53 PM,45.0,39.0,80,30.28,10.0,Calm,Calm,-,N/A,,Clear,0,2012-11-30 04:53:00
11:53 PM,42.1,37.9,85,30.27,8.0,SE,3.5,-,N/A,,Clear,130,2012-11-30 05:53:00